weather.gov     
National Weather Service

Regional Weather Roundup
NWS Homepage
This page is being discontinued on March 12, 2014.
The same data is available at this site. Please update your bookmarks.
Thank you, and we apologize for the inconvenience.
Please send an email to SR-SRH.Webmaster@noaa.gov with any concerns.


Current Version
Previous Version:    01  02  03  04  05  06  07  08  09  10  11  12  13  14  15  16  17  18  19  20  21  22  23  24  25  26  27  28  29  30  
   31  32  33  34  35  36  37  38  39  40  41  42  43  44  45  46  47  48  49  50  51  52  53  54  
[Printable]
656
ASUS43 KGLD 181059
RWRGLD

GOODLAND FORECAST AREA HOURLY WEATHER ROUNDUP
NATIONAL WEATHER SERVICE GOODLAND KS
500 AM MDT FRI APR 18 2014

...OFFICIAL OBSERVATIONS...

CITY           SKY/WX    TMP DP  RH WIND       PRES   REMARKS
GOODLAND KS    CLEAR     34  32  92 S18       30.08F
HILL CITY KS   CLEAR     37  34  89 S5        30.18S
IMPERIAL NEB   CLEAR     39  33  79 S8        30.04F
MCCOOK NEB     CLEAR     38  36  92 S9        30.12F
AKRON CO       CLEAR     39  33  79 S12       29.99F
BURLINGTON CO  CLEAR     38  33  82 S17       30.07S
LIMON CO       PTCLDY    26  26 100 CALM      30.06F
$$

...UNOFFICIAL OBSERVATIONS...

CITY           SKY/WX    TMP DP  RH WIND       PRES   REMARKS
COLBY KS       CLEAR     37  37 100 S13       30.12S
LENORA KS        N/A     37  32  82 S12         N/A
LEOTI KS         N/A     35  32  87 S7          N/A
NORTON KS      CLEAR     36  34  93 S7        30.15S
SHARON SPRINGS   N/A     34  30  86 S12G18      N/A
WAKEENEY KS      N/A     39  35  86 MISG        N/A
TRENTON NEB      N/A     35  32  89 S10         N/A
KIT CARSON CO    N/A     30  28  90 MISG        N/A
$$




U.S. Dept. of Commerce
NOAA National Weather Service
1325 East West Highway
Silver Spring, MD 20910
E-mail: w-nws.webmaster@noaa.gov
Page last modified: May 16, 2007
NATIONAL WEATHER SERVICE: for Safety, for Work, for Fun - FOR LIFE